Regional Weather Roundup
Issued by NWS

Home | Current Version | Previous Version | Text Only | Print | Product List | Glossary Off
Versions: 1 2 3 4 5 6 7 8 9 10 11 12 13 14 15 16 17 18 19 20 21 22 23 24 25 26 27 28 29 30 31 32 33 34 35 36 37 38 39 40 41 42 43 44 45 46 47 48 49 50

173
ASUS45 KCYS 292010
RWRWY

WYOMING REGIONAL WEATHER ROUNDUP
NATIONAL WEATHER SERVICE CHEYENNE WY
200 PM MDT SUN MAY 29 2016

NOTE:  "FAIR" INDICATES FEW OR NO CLOUDS BELOW 12,000 FEET
WITH NO SIGNIFICANT WEATHER AND/OR OBSTRUCTIONS TO VISIBILITY.

WYZ001-292100-
YELLOWSTONE NATIONAL PARK

CITY           SKY/WX    TMP DP  RH WIND       PRES   REMARKS
LK YELLOWSTONE   N/A     58  25  28 VRB3G17   30.22F
W YELLOWSTONE  NOT AVBL

$$
WYZ002>013-054>058-071-098>099-292100-
NORTHERN WYOMING

CITY           SKY/WX    TMP DP  RH WIND       PRES   REMARKS
JACKSON        PTSUNNY   63  30  29 W13       30.14F
CODY           FAIR      70  36  28 SE7G17    30.04F
GREYBULL       FAIR      74  26  16 VRB5      30.02F
WORLAND        FAIR      75  28  17 SE6       30.03F
SHERIDAN       FAIR      74  37  26 SE10      30.02F
BUFFALO        PTSUNNY   68  45  43 SE8G18    30.07F
GILLETTE       PTSUNNY   69  40  34 SE8       30.05F
HULETT         MOCLDY    70  43  37 CALM      30.07S
NEWCASTLE      FAIR      73  37  27 S12G17    30.08F

$$
WYZ014>020-022>026-101>103-292100-
CENTRAL WYOMING

CITY           SKY/WX    TMP DP  RH WIND       PRES   REMARKS
BIG PINEY      PTSUNNY   62  33  33 S8        30.19F
PINEDALE         N/A     61  30  31 CALM      30.21
DUBOIS         FAIR      63  21  20 W22G33    30.15F
LANDER         FAIR      69  33  26 VRB6      30.08F
RIVERTON       FAIR      69  27  20 S3        30.10F
CASPER         FAIR      71  31  22 S8        30.10F
DOUGLAS          N/A    N/A N/A N/A MISG      30.08F

$$
WYZ021-027>030-104>119-292100-
SOUTHERN WYOMING

CITY           SKY/WX    TMP DP  RH WIND       PRES   REMARKS
EVANSTON       PTSUNNY   64  35  34 NW15G21   30.18F
KEMMERER         N/A     64  32  29 SW3       30.21F
FORT BRIDGER   PTCLDY    66  34  30 CALM      30.22F
ROCK SPRINGS   FAIR      67  30  25 MISG      30.18F
DIXON          FAIR      70  36  28 SW8G21    30.20F
RAWLINS        PTSUNNY   69  32  25 SW16      30.19F
SARATOGA       FAIR      68  32  26 SW9G21    30.20F
LARAMIE        PTSUNNY   58  34  40 NW16      30.21R
CHEYENNE       FAIR      70  36  28 W12       30.15F
TORRINGTON     PTSUNNY   78  42  27 S14       30.05F
PINE BLUFFS    FAIR      73  36  25 S13       30.11F

$$




USA.gov is the U.S. government's official web portal to all federal, state and local government web resources and services.